GS234 EBCI-EDDN

Flight info

Callsign GS234
Flight time N/A
Altitude 33000
Route ROPUV L607 UBIDU L984 RUDUS T109 HAREM T104 DKB N869 LETKU LETKU1T
Aircraft P180/L-SBDFGM3RWXY/LB1

Departure

Time 2026-04-28 15:45
Airport Brussels South Charleroi Airport (EBCI)

Arrival

Time N/A
Airport Nuremberg Airport (EDDN)
Time Latitude Longitude Altitude Speed Heading
2026-04-28 15:34 50.45881 4.45514 607 ft 0 kts 245°
2026-04-28 15:40 50.45879 4.45506 607 ft 2 kts 248°
2026-04-28 15:40 50.45885 4.45469 607 ft 6 kts 302°
2026-04-28 15:41 50.45901 4.45405 606 ft 8 kts 251°
2026-04-28 15:41 50.45873 4.45303 615 ft 12 kts 245°
2026-04-28 15:41 50.45830 4.45161 611 ft 16 kts 243°
2026-04-28 15:41 50.45775 4.44977 615 ft 21 kts 246°
2026-04-28 15:42 50.45709 4.44752 611 ft 25 kts 246°
2026-04-28 15:42 50.45635 4.44487 610 ft 28 kts 246°
2026-04-28 15:42 50.45548 4.44186 607 ft 32 kts 245°
2026-04-28 15:42 50.45456 4.43871 614 ft 25 kts 245°
2026-04-28 15:43 50.45438 4.43772 607 ft 0 kts 290°
2026-04-28 15:43 50.45439 4.43770 607 ft 4 kts 290°
2026-04-28 15:43 50.45498 4.43705 611 ft 13 kts 353°
2026-04-28 15:44 50.45557 4.43813 609 ft 15 kts 64°
2026-04-28 15:44 50.45604 4.43971 609 ft 17 kts 65°
2026-04-28 15:44 50.45675 4.44209 609 ft 58 kts 66°
2026-04-28 15:44 50.45972 4.45215 782 ft 127 kts 63°
2026-04-28 15:45 50.46380 4.46640 1484 ft 161 kts 67°
2026-04-28 15:45 50.46370 4.48402 2747 ft 180 kts 111°
2026-04-28 15:45 50.45516 4.50073 3712 ft 208 kts 124°
2026-04-28 15:45 50.44820 4.52101 4556 ft 215 kts 102°
2026-04-28 15:46 50.44558 4.54456 5404 ft 223 kts 93°
2026-04-28 15:46 50.44554 4.56896 6469 ft 225 kts 94°
2026-04-28 15:46 50.44388 4.59354 7381 ft 229 kts 100°
2026-04-28 15:46 50.44138 4.61831 8355 ft 230 kts 100°
2026-04-28 15:47 50.43918 4.64319 9221 ft 237 kts 99°
2026-04-28 15:47 50.43694 4.66901 10145 ft 242 kts 99°
2026-04-28 15:47 50.43449 4.69579 11026 ft 243 kts 99°
2026-04-28 15:47 50.43216 4.72225 11908 ft 246 kts 99°
2026-04-28 15:48 50.42978 4.74919 12764 ft 253 kts 98°
2026-04-28 15:48 50.42727 4.77689 13575 ft 260 kts 98°
2026-04-28 15:48 50.42474 4.80497 14351 ft 265 kts 98°
2026-04-28 15:48 50.42215 4.83371 15140 ft 268 kts 99°
2026-04-28 15:49 50.41956 4.86277 15927 ft 271 kts 99°
2026-04-28 15:49 50.41682 4.89234 16593 ft 277 kts 99°
2026-04-28 15:49 50.41410 4.92261 17286 ft 282 kts 100°
2026-04-28 15:49 50.41135 4.95323 18037 ft 285 kts 101°
2026-04-28 15:50 50.40845 4.98417 18715 ft 288 kts 101°
2026-04-28 15:50 50.40561 5.01522 19295 ft 293 kts 100°
2026-04-28 15:50 50.40269 5.04715 19895 ft 297 kts 101°
2026-04-28 15:50 50.39973 5.07928 20556 ft 299 kts 101°
2026-04-28 15:51 50.39671 5.11170 21117 ft 306 kts 100°
2026-04-28 15:51 50.39357 5.14520 21725 ft 312 kts 100°
2026-04-28 15:51 50.39048 5.17891 22420 ft 315 kts 100°
2026-04-28 15:51 50.38726 5.21328 23135 ft 320 kts 101°
2026-04-28 15:52 50.38398 5.24799 23841 ft 324 kts 100°
2026-04-28 15:52 50.38063 5.28320 24480 ft 328 kts 100°
2026-04-28 15:52 50.37726 5.31887 25123 ft 333 kts 101°
2026-04-28 15:52 50.37391 5.35450 25766 ft 338 kts 100°
2026-04-28 15:53 50.37046 5.39099 26477 ft 342 kts 100°
2026-04-28 15:53 50.36688 5.42818 27234 ft 347 kts 100°
2026-04-28 15:53 50.36323 5.46600 27928 ft 354 kts 100°
2026-04-28 15:53 50.35956 5.50449 28763 ft 358 kts 100°
2026-04-28 15:54 50.35584 5.54291 29876 ft 355 kts 100°
2026-04-28 15:54 50.35210 5.58134 30801 ft 358 kts 100°
2026-04-28 15:54 50.34836 5.62003 31705 ft 359 kts 101°
2026-04-28 15:54 50.34464 5.65820 32626 ft 359 kts 101°
2026-04-28 15:55 50.34079 5.69731 33116 ft 372 kts 102°
2026-04-28 15:55 50.33669 5.73867 33125 ft 396 kts 101°
2026-04-28 15:55 50.33245 5.78239 33138 ft 418 kts 101°
2026-04-28 15:55 50.32793 5.82865 33139 ft 435 kts 101°
2026-04-28 15:56 50.32312 5.87635 33136 ft 450 kts 101°
2026-04-28 15:56 50.31825 5.92475 33130 ft 460 kts 101°
2026-04-28 15:56 50.31345 5.97332 33130 ft 442 kts 101°
2026-04-28 15:56 50.30878 6.02012 33120 ft 427 kts 102°
2026-04-28 15:57 50.29949 6.11000 33120 ft 411 kts 102°
2026-04-28 15:57 50.29067 6.19743 33120 ft 402 kts 102°
2026-04-28 15:58 50.28179 6.28302 33104 ft 395 kts 102°
2026-04-28 15:58 50.27317 6.36667 33104 ft 390 kts 102°
2026-04-28 15:59 50.26586 6.43611 33103 ft 387 kts 102°
2026-04-28 15:59 50.25572 6.53282 33093 ft 384 kts 102°
2026-04-28 16:00 50.24706 6.61449 33093 ft 382 kts 102°
2026-04-28 16:00 50.23974 6.68304 33109 ft 380 kts 102°